FW3708 Weather Reports


Display with metric or nautical units.
time (UTC)temp
F
wind
direction
speed
MPH
gust
MPH
rain 1hr
in
rain 24hr
in
rain mn
in
humidity
%
barometer
mb
20260510230342 0 0.0 0.0 0.00 0.00 0.00
20260510230130 0 0.0 0.0 0.00 0.00 0.00
20260510230111 0 0.0 0.0 0.00 0.00 0.00
20260510230057 0 0.0 0.0 0.00 0.00 0.00
20260510230023 0 0.0 0.0 0.00 0.00 0.00
20260510223036 83 342 1.0 3.0 0.00 0.00 0.00 78 1014.9
20260510222820 83 331 1.0 3.0 0.00 0.00 0.00 78 1015.0
20260510222039 83 328 0.0 2.0 0.00 0.00 0.00 78 1015.0
20260510221534 83 321 0.0 2.0 0.00 0.00 0.00 78 1014.9
20260510221317 84 324 1.0 1.0 0.00 0.00 0.00 76 1014.9
20260510220644 84 319 0.0 3.0 0.00 0.00 0.00 77 1014.8
20260510220609 84 320 1.0 2.0 0.00 0.00 0.00 77 1014.9
20260510215532 84 318 1.0 3.0 0.00 0.00 0.00 77 1014.8
20260510215032 84 316 1.0 3.0 0.00 0.00 0.00 77 1015.3
20260510214533 84 121 1.0 3.0 0.00 0.00 0.00 76 1015.0
20260510214032 84 350 3.0 3.0 0.00 0.00 0.00 76 1015.0
20260510213822 84 319 1.0 6.0 0.00 0.00 0.00 77 1014.9
20260510213033 84 50 2.0 9.0 0.00 0.00 0.00 77 1015.1
20260510212817 84 4 2.0 9.0 0.00 0.00 0.00 77 1014.8
20260510212031 84 341 1.0 8.0 0.00 0.00 0.00 76 1014.6
20260510211532 86 336 2.0 8.0 0.00 0.00 0.00 73 1015.1
20260510211031 87 309 1.0 7.0 0.00 0.00 0.00 64 1015.0
20260510210525 87 312 2.0 7.0 0.00 0.00 0.00 63 1015.1
20260510210024 87 296 2.0 7.0 0.00 0.00 0.00 63 1014.8
20260510205522 88 212 2.0 7.0 0.00 0.00 0.00 62 1014.9
20260510205310 87 257 1.0 7.0 0.00 0.00 0.00 61 1014.7
20260510205005 87 323 2.0 6.0 0.00 0.00 0.00 62 1014.7
20260510204555 87 306 2.0 6.0 0.00 0.00 0.00 61 1014.7
20260510203514 86 279 2.0 3.0 0.00 0.00 0.00 63 1014.7
20260510203009 86 298 3.0 4.0 0.00 0.00 0.00 64 1014.9
20260510202521 86 322 1.0 7.0 0.00 0.00 0.00 69 1014.7
20260510202011 86 282 4.0 7.0 0.00 0.00 0.00 68 1014.9
20260510201515 86 301 1.0 6.0 0.00 0.00 0.00 70 1014.7
20260510201009 86 315 1.0 6.0 0.00 0.00 0.00 71 1014.6
20260510200513 86 303 2.0 7.0 0.00 0.00 0.00 70 1014.5
20260510200005 86 333 1.0 7.0 0.00 0.00 0.00 70 1014.4
20260510195508 86 305 2.0 7.0 0.00 0.00 0.00 70 1014.4
20260510195005 86 300 3.0 8.0 0.00 0.00 0.00 69 1014.2
20260510194509 87 282 2.0 8.0 0.00 0.00 0.00 69 1014.1
20260510194007 90 236 6.0 7.0 0.00 0.00 0.00 61 1014.2
20260510193510 91 322 2.0 6.0 0.00 0.00 0.00 59 1014.3
20260510193008 91 164 2.0 6.0 0.00 0.00 0.00 56 1014.3
20260510192514 91 301 1.0 8.0 0.00 0.00 0.00 57 1014.4
20260510192007 91 230 1.0 8.0 0.00 0.00 0.00 57 1014.4
20260510191751 92 281 3.0 7.0 0.00 0.00 0.00 55 1014.1
20260510191253 92 346 2.0 6.0 0.00 0.00 0.00 56 1014.6
20260510190507 92 243 1.0 6.0 0.00 0.00 0.00 57 1014.5
20260510190007 93 332 1.0 3.0 0.00 0.00 0.00 54 1014.4
20260510185452 92 281 1.0 4.0 0.00 0.00 0.00 60 1014.6
20260510184946 92 305 0.0 4.0 0.00 0.00 0.00 58 1014.7
20260510184451 92 342 1.0 4.0 0.00 0.00 0.00 57 1014.8
20260510183941 92 271 1.0 6.0 0.00 0.00 0.00 56 1014.6
20260510183446 92 332 2.0 7.0 0.00 0.00 0.00 57 1014.7
20260510182941 92 259 6.0 7.0 0.00 0.00 0.00 55 1014.9
20260510182718 92 264 1.0 3.0 0.00 0.00 0.00 55 1014.9
20260510181946 92 341 0.0 3.0 0.00 0.00 0.00 56 1015.1
20260510181446 92 292 1.0 3.0 0.00 0.00 0.00 54 1015.0
20260510180943 93 231 2.0 3.0 0.00 0.00 0.00 56 1014.9
20260510180737 92 282 1.0 4.0 0.00 0.00 0.00 56 1014.9
20260510180234 92 265 1.0 4.0 0.00 0.00 0.00 55 1015.1
20260510175717 92 314 0.0 6.0 0.00 0.00 0.00 54 1015.2
20260510174932 93 255 4.0 6.0 0.00 0.00 0.00 54 1015.3
20260510174445 92 236 2.0 7.0 0.00 0.00 0.00 56 1015.3
20260510173944 91 262 1.0 7.0 0.00 0.00 0.00 55 1015.5
20260510173444 91 306 1.0 6.0 0.00 0.00 0.00 58 1015.4
20260510173232 92 309 1.0 6.0 0.00 0.00 0.00 54 1015.6
20260510172436 92 244 1.0 6.0 0.00 0.00 0.00 60 1015.6
20260510171946 92 228 2.0 7.0 0.00 0.00 0.00 59 1015.7
20260510171733 90 234 1.0 7.0 0.00 0.00 0.00 59 1015.7
20260510170944 90 277 3.0 7.0 0.00 0.00 0.00 59 1015.7
20260510170503 91 211 1.0 8.0 0.00 0.00 0.00 60 1015.8
20260510165946 91 236 1.0 8.0 0.00 0.00 0.00 59 1015.8
20260510165436 90 276 1.0 3.0 0.00 0.00 0.00 63 1016.1
20260510164936 90 301 0.0 3.0 0.00 0.00 0.00 61 1015.9
20260510164436 91 262 2.0 3.0 0.00 0.00 0.00 60 1016.3
20260510164338 91 243 1.0 3.0 0.00 0.00 0.00 60 1016.1
20260510164312 92 357 0.0 3.0 0.00 0.00 0.00 59 1016.1
20260510162944 91 158 1.0 4.0 0.00 0.00 0.00 64 1016.1
20260510162425 89 293 0.0 6.0 0.00 0.00 0.00 63 1016.4
20260510161940 89 219 3.0 4.0 0.00 0.00 0.00 62 1016.4
20260510161408 89 311 1.0 6.0 0.00 0.00 0.00 63 1016.5
20260510160909 89 37 2.0 6.0 0.00 0.00 0.00 63 1016.4
20260510160406 90 234 2.0 8.0 0.00 0.00 0.00 63 1016.2
20260510160218 89 223 2.0 8.0 0.00 0.00 0.00 64 1016.4
20260510155818 89 307 1.0 7.0 0.00 0.00 0.00 65 1016.4
20260510155448 89 228 1.0 7.0 0.00 0.00 0.00 63 1016.3
20260510154405 89 232 3.0 7.0 0.00 0.00 0.00 67 1016.5
20260510153906 89 237 1.0 6.0 0.00 0.00 0.00 64 1016.3
20260510153405 89 304 4.0 6.0 0.00 0.00 0.00 65 1016.4
20260510152905 87 210 4.0 7.0 0.00 0.00 0.00 67 1016.5
20260510152409 89 229 3.0 7.0 0.00 0.00 0.00 65 1016.5
20260510151904 89 292 1.0 7.0 0.00 0.00 0.00 67 1016.3
20260510151408 87 341 2.0 7.0 0.00 0.00 0.00 68 1016.2
20260510150908 89 236 2.0 3.0 0.00 0.00 0.00 66 1016.4
20260510150408 88 183 0.0 4.0 0.00 0.00 0.00 67 1016.3
20260510145910 88 292 2.0 7.0 0.00 0.00 0.00 67 1016.2
20260510145407 88 106 1.0 7.0 0.00 0.00 0.00 68 1016.3
20260510144906 88 221 4.0 7.0 0.00 0.00 0.00 69 1016.2
20260510144412 87 252 1.0 6.0 0.00 0.00 0.00 70 1016.1
20260510143910 86 213 2.0 6.0 0.00 0.00 0.00 71 1016.3
20260510143407 86 314 1.0 6.0 0.00 0.00 0.00 70 1016.3
20260510142907 84 248 1.0 6.0 0.00 0.00 0.00 74 1016.6
20260510142406 85 239 2.0 6.0 0.00 0.00 0.00 74 1016.6
20260510141923 85 313 0.0 3.0 0.00 0.00 0.00 77 1016.5
20260510141417 85 312 1.0 3.0 0.00 0.00 0.00 74 1016.3
20260510140926 84 308 2.0 4.0 0.00 0.00 0.00 75 1016.3
20260510140411 84 273 4.0 4.0 0.00 0.00 0.00 75 1016.1
20260510135928 84 308 1.0 2.0 0.00 0.00 0.00 78 1016.3
20260510135659 85 304 0.0 2.0 0.00 0.00 0.00 79 1015.8
20260510134910 84 334 0.0 2.0 0.00 0.00 0.00 80 1016.2
20260510134715 83 60 0.0 2.0 0.00 0.00 0.00 81 1015.9
20260510133922 82 302 0.0 2.0 0.00 0.00 0.00 81 1015.9
20260510133708 82 318 1.0 4.0 0.00 0.00 0.00 83 1015.9
20260510132913 82 261 0.0 4.0 0.00 0.00 0.00 84 1015.9
20260510132405 81 288 1.0 3.0 0.00 0.00 0.00 85 1015.9
20260510131834 81 321 0.0 3.0 0.00 0.00 0.00 86 1015.6
20260510131337 81 290 0.0 2.0 0.00 0.00 0.00 87 1015.7
20260510130834 80 321 0.0 2.0 0.00 0.00 0.00 88 1015.5
20260510130334 80 314 0.0 2.0 0.00 0.00 0.00 89 1015.6
20260510125834 80 339 0.0 2.0 0.00 0.00 0.00 89 1015.8
20260510125632 79 325 0.0 2.0 0.00 0.00 0.00 89 1015.6
20260510124826 80 320 1.0 2.0 0.00 0.00 0.00 90 1015.4
20260510124318 80 332 0.0 3.0 0.00 0.00 0.00 89 1015.5
20260510123814 80 305 1.0 3.0 0.00 0.00 0.00 89 1015.5
20260510123309 79 310 0.0 2.0 0.00 0.00 0.00 90 1015.7
20260510122808 78 311 0.0 2.0 0.00 0.00 0.00 93 1015.5
20260510122306 77 330 0.0 2.0 0.00 0.00 0.00 95 1015.5
20260510121807 76 22 0.0 1.0 0.00 0.00 0.00 97 1015.3
20260510121306 76 334 0.0 2.0 0.00 0.00 0.00 99 1015.2
20260510120807 75 291 0.0 4.0 0.00 0.00 0.00 99 1015.2
20260510120304 75 316 0.0 4.0 0.00 0.00 0.00 99 1014.9
20260510120126 74 294 1.0 1.0 0.00 0.00 0.00 99 1015.0
20260510115306 74 318 0.0 2.0 0.00 0.00 0.00 99 1014.8
20260510115114 74 301 0.0 2.0 0.00 0.00 0.00 99 1014.8
20260510114256 74 313 0.0 2.0 0.00 0.00 0.00 99 1014.9
20260510113747 74 352 1.0 3.0 0.00 0.00 0.00 99 1014.8
20260510113245 74 277 2.0 3.0 0.00 0.00 0.00 99 1014.8
20260510112739 74 318 0.0 2.0 0.00 0.00 0.00 99 1014.9
20260510112235 73 322 0.0 2.0 0.00 0.00 0.00 99 1014.7
20260510111737 73 321 0.0 2.0 0.00 0.00 0.00 99 1014.4
20260510111238 73 322 0.0 2.0 0.00 0.00 0.00 99 1014.3
20260510110733 73 313 0.0 2.0 0.00 0.00 0.00 99 1014.5
20260510110231 73 329 0.0 2.0 0.00 0.00 0.00 99 1014.8
20260510105732 73 311 0.0 2.0 0.00 0.00 0.00 99 1014.3
20260510105539 73 309 0.0 1.0 0.00 0.00 0.00 99 1014.2
20260510104735 73 325 0.0 1.0 0.00 0.00 0.00 99 1014.0
20260510104232 73 283 0.0 1.0 0.00 0.00 0.00 99 1014.0
20260510103734 73 318 0.0 0.0 0.00 0.00 0.00 99 1013.7
20260510103233 73 324 0.0 0.0 0.00 0.00 0.00 99 1013.8
20260510102733 73 320 0.0 1.0 0.00 0.00 0.00 99 1013.6
20260510102236 73 319 0.0 1.0 0.00 0.00 0.00 99 1013.7
20260510101736 73 323 0.0 1.0 0.00 0.00 0.00 99 1013.7
20260510101546 73 329 0.0 1.0 0.00 0.00 0.00 99 1013.6
20260510100734 73 330 0.0 1.0 0.00 0.00 0.00 99 1013.5
20260510100236 73 316 0.0 1.0 0.00 0.00 0.00 99 1013.5
20260510100045 73 321 0.0 0.0 0.00 0.00 0.00 99 1013.5
20260510095357 73 324 0.0 0.0 0.00 0.00 0.00 99 1013.6
20260510095319 73 330 0.0 0.0 0.00 0.00 0.00 99 1013.6
20260510094239 73 319 0.0 0.0 0.00 0.00 0.00 99 1013.3
20260510093736 73 320 0.0 0.0 0.00 0.00 0.00 99 1013.5
20260510093533 73 322 0.0 0.0 0.00 0.00 0.00 99 1013.3
20260510092735 73 322 0.0 0.0 0.00 0.00 0.00 99 1013.5
20260510092233 73 323 0.0 0.0 0.00 0.00 0.00 99 1013.4
20260510091735 73 328 0.0 0.0 0.00 0.00 0.00 99 1013.3
20260510091234 73 317 0.0 0.0 0.00 0.00 0.00 99 1013.2
20260510090728 73 318 0.0 0.0 0.00 0.00 0.00 99 1013.2
20260510090227 72 328 0.0 0.0 0.00 0.00 0.00 99 1013.1
20260510085720 72 322 0.0 0.0 0.00 0.00 0.00 99 1013.3
20260510085219 73 316 0.0 1.0 0.00 0.00 0.00 99 1013.2
20260510084714 73 341 0.0 0.0 0.00 0.00 0.00 99 1013.6
20260510084216 72 324 0.0 0.0 0.00 0.00 0.00 99 1013.7
20260510083709 72 317 0.0 0.0 0.00 0.00 0.00 99 1013.2
20260510083209 72 317 0.0 0.0 0.00 0.00 0.00 99 1013.2
20260510082842 72 318 0.0 0.0 0.00 0.00 0.00 99 1013.5
20260510082759 72 317 0.0 0.0 0.00 0.00 0.00 99 1013.3
20260510081707 72 320 0.0 0.0 0.00 0.00 0.00 99 1013.1
20260510081206 72 320 0.0 0.0 0.00 0.00 0.00 99 1013.3
20260510080706 72 320 0.0 0.0 0.00 0.00 0.00 99 1013.4
20260510080205 72 319 0.0 0.0 0.00 0.00 0.00 99 1013.2
20260510080019 72 314 0.0 0.0 0.00 0.00 0.00 99 1013.2
20260510075327 72 319 0.0 1.0 0.00 0.00 0.00 99 1013.3
20260510075249 72 323 0.0 0.0 0.00 0.00 0.00 99 1013.4
20260510074208 73 313 0.0 1.0 0.00 0.00 0.00 99 1013.1
20260510073713 73 315 0.0 0.0 0.00 0.01 0.00 99 1013.4
20260510073210 73 318 0.0 0.0 0.00 0.02 0.00 99 1013.3
20260510072707 73 324 0.0 1.0 0.00 0.03 0.00 99 1013.5
20260510072629 73 319 0.0 1.0 0.00 0.04 0.00 99 1013.6
20260510072254 73 315 0.0 1.0 0.00 0.03 0.00 99 1013.7
20260510071209 72 309 0.0 1.0 0.00 0.05 0.00 99 1013.7
20260510070705 72 313 0.0 1.0 0.00 0.06 0.00 99 1013.9
20260510070203 72 314 0.0 0.0 0.00 0.07 0.00 99 1013.6
20260510065705 72 314 0.0 0.0 0.00 0.07 0.00 99 1013.7
20260510065205 72 314 0.0 1.0 0.00 0.08 0.00 99 1013.7
20260510064704 72 307 0.0 1.0 0.00 0.08 0.00 99 1013.6
20260510064205 72 305 0.0 1.0 0.00 0.08 0.00 99 1013.6
20260510063708 72 321 0.0 0.0 0.00 0.08 0.00 99 1013.5
20260510063207 72 321 0.0 0.0 0.00 0.08 0.00 99 1013.5
20260510062709 72 317 0.0 0.0 0.00 0.08 0.00 99 1013.9
20260510062209 72 311 0.0 0.0 0.00 0.08 0.00 99 1013.7
20260510061709 72 318 0.0 0.0 0.00 0.08 0.00 99 1014.0
20260510061308 72 318 0.0 1.0 0.00 0.08 0.00 99 1013.8
20260510061232 72 318 0.0 0.0 0.00 0.08 0.00 99 1013.9
20260510060133 73 314 0.0 1.0 0.00 0.08 0.00 99 1014.1
20260510055637 73 317 0.0 0.0 0.00 0.08 0.00 99 1014.1
20260510055137 72 314 0.0 0.0 0.00 0.08 0.00 99 1013.9
20260510054942 73 321 0.0 0.0 0.00 0.08 0.00 99 1014.2
20260510054136 73 321 0.0 0.0 0.00 0.08 0.00 99 1014.1
20260510053637 72 319 0.0 0.0 0.00 0.08 0.00 99 1014.2
20260510053439 73 313 0.0 0.0 0.00 0.08 0.00 99 1014.4
20260510052633 73 320 0.0 0.0 0.00 0.08 0.00 99 1014.3
20260510052132 73 321 0.0 1.0 0.00 0.08 0.00 99 1014.3
20260510051632 73 325 0.0 1.0 0.00 0.08 0.00 99 1014.8
20260510051132 73 319 0.0 1.0 0.00 0.08 0.00 99 1014.6
20260510050631 73 309 0.0 1.0 0.00 0.08 0.00 99 1014.8
20260510050133 73 314 0.0 1.0 0.00 0.08 0.00 99 1014.9
20260510045632 73 317 0.0 1.0 0.00 0.08 0.00 99 1015.0
20260510045132 73 320 0.0 1.0 0.00 0.08 0.00 99 1015.1
20260510044633 73 317 0.0 0.0 0.00 0.08 0.00 99 1014.7
20260510044133 73 319 0.0 0.0 0.00 0.08 0.00 99 1014.9
20260510043936 74 320 0.0 1.0 0.00 0.08 0.00 99 1015.0
20260510043134 73 325 0.0 1.0 0.00 0.08 0.00 99 1014.9
20260510042944 73 329 0.0 0.0 0.00 0.08 0.00 99 1014.8
20260510042132 73 317 0.0 1.0 0.00 0.08 0.00 99 1014.7
20260510041937 74 311 0.0 1.0 0.00 0.08 0.00 99 1014.9
20260510041439 74 316 0.0 0.0 0.00 0.08 0.00 99 1014.8
20260510040938 74 317 0.0 0.0 0.00 0.08 0.00 98 1014.7
20260510040133 74 314 0.0 1.0 0.00 0.08 0.00 98 1014.7
20260510035634 74 323 0.0 2.0 0.00 0.08 0.08 98 1014.7
20260510035133 74 332 0.0 2.0 0.00 0.08 0.08 98 1014.5
20260510034635 74 325 0.0 1.0 0.00 0.08 0.08 98 1014.7
20260510034133 74 324 0.0 0.0 0.00 0.08 0.08 98 1014.9
20260510033632 74 314 0.0 0.0 0.00 0.08 0.08 97 1014.8
20260510033445 74 324 0.0 0.0 0.00 0.08 0.08 97 1014.6
20260510032957 74 317 0.0 0.0 0.00 0.08 0.08 96 1014.8
20260510032136 74 320 0.0 0.0 0.00 0.08 0.08 96 1014.9
20260510031635 74 322 0.0 0.0 0.00 0.08 0.08 95 1014.9
20260510031133 74 324 0.0 1.0 0.00 0.08 0.08 95 1014.9
20260510030635 74 323 0.0 1.0 0.00 0.08 0.08 95 1014.8
20260510030132 74 331 0.0 0.0 0.00 0.08 0.08 94 1014.6
20260510025632 74 319 0.0 1.0 0.00 0.08 0.08 94 1014.6
20260510025132 75 319 0.0 1.0 0.00 0.08 0.08 94 1014.4
20260510024633 75 311 0.0 1.0 0.00 0.08 0.08 93 1014.5
20260510024133 76 325 0.0 2.0 0.00 0.08 0.08 92 1014.3
20260510023939 76 356 1.0 2.0 0.00 0.08 0.08 92 1014.6
20260510023118 76 320 0.0 2.0 0.00 0.08 0.08 91 1014.6
20260510022619 76 5 1.0 2.0 0.00 0.08 0.08 91 1014.5
20260510022120 76 355 1.0 3.0 0.00 0.08 0.08 90 1014.4
20260510021611 76 320 0.0 3.0 0.00 0.08 0.08 90 1014.7
20260510021108 76 329 0.0 3.0 0.00 0.08 0.08 90 1014.8
20260510020910 76 327 0.0 2.0 0.00 0.08 0.08 90 1014.8
20260510020106 77 328 1.0 1.0 0.00 0.08 0.08 91 1014.7
20260510015605 77 320 0.0 1.0 0.00 0.08 0.08 91 1014.5
20260510015103 76 323 0.0 1.0 0.00 0.08 0.08 91 1014.5
20260510014921 76 317 0.0 1.0 0.00 0.08 0.08 91 1014.7
20260510014104 76 319 0.0 1.0 0.00 0.08 0.08 91 1014.2
20260510013607 77 325 0.0 1.0 0.00 0.08 0.08 90 1014.2
20260510013413 77 321 0.0 1.0 0.00 0.08 0.08 90 1014.2
20260510012607 77 317 0.0 1.0 0.00 0.09 0.08 89 1014.1
20260510012409 77 317 0.0 3.0 0.00 0.12 0.08 88 1014.1
20260510011907 77 351 1.0 3.0 0.00 0.17 0.08 88 1014.0
20260510011411 77 354 0.0 2.0 0.00 0.19 0.08 88 1013.9
20260510010606 77 335 1.0 3.0 0.00 0.21 0.08 88 1013.5
20260510010108 77 316 0.0 3.0 0.00 0.24 0.08 89 1013.8
20260510005606 77 312 0.0 2.0 0.00 0.32 0.08 90 1013.6
20260510005108 77 324 0.0 4.0 0.00 0.38 0.08 90 1013.7
20260510004605 77 7 1.0 4.0 0.00 0.38 0.08 90 1013.6
20260510004104 77 325 0.0 3.0 0.00 0.39 0.08 90 1013.5
20260510003918 77 323 0.0 2.0 0.00 0.39 0.08 90 1013.4
20260510003109 77 306 1.0 2.0 0.00 0.39 0.08 90 1013.3
20260510002915 77 314 0.0 2.0 0.00 0.39 0.08 90 1013.2
20260510002106 78 320 0.0 3.0 0.00 0.39 0.08 89 1013.3
20260510001606 77 342 1.0 4.0 0.00 0.39 0.08 89 1013.3
20260510001105 78 342 1.0 4.0 0.00 0.39 0.08 90 1013.2
20260510000605 77 333 0.0 3.0 0.00 0.39 0.08 90 1013.4
20260510000106 78 173 1.0 3.0 0.00 0.39 0.08 91 1013.3
20260509235607 78 354 1.0 2.0 0.00 0.39 0.08 91 1013.2
20260509235103 78 324 1.0 2.0 0.00 0.39 0.08 91 1013.1
20260509234606 78 314 1.0 2.0 0.00 0.39 0.08 91 1012.9
20260509234409 78 333 0.0 7.0 0.00 0.39 0.08 90 1013.0
20260509233605 78 329 2.0 7.0 0.00 0.39 0.08 90 1012.7
20260509233105 78 11 2.0 7.0 0.00 0.39 0.08 89 1012.9
20260509232604 78 333 1.0 6.0 0.00 0.39 0.08 89 1012.6
20260509232106 79 335 2.0 6.0 0.00 0.39 0.08 89 1012.6
20260509231556 79 39 2.0 6.0 0.00 0.39 0.08 89 1012.2
20260509231033 79 326 1.0 7.0 0.00 0.39 0.08 88 1012.5